Location: Audignicourt
(49.4788°N, 3.1340°E)
Time: 11:49:06
(UTC+00:00)

Cosmos 1842 - Pass Details

Date: 15 May 2026
Orbit: 395 x 398 km, 82.5° (Epoch: 6 June)

Event Time Altitude Azimuth Distance (km) Brightness Sun altitude
Exits shadow 21:55:11 20° 79° (E) 998 4.5 -17.4°
Drops below altitude 10° 21:57:12 10° 40° (NE) 1,451 5.8 -17.5°
Sets 21:59:32 0° 23° (NNE) 2,314 7.1 -17.7°
